This is the latest recevied weather packets stored in our database for station/object KM8V-8. If no packets are shown the sender has not sent any weather packets the latest 10 day(s).
| Time | Temp. | Humidity | Pressure | Rain* | Wind** | Luminosity | Snow |
|---|---|---|---|---|---|---|---|
| 1778109325 | 9.44° C | 64% | 1012.6 hPa | 0 mm | - | 62 W/m² | - |
| 1778109025 | 9.44° C | 65% | 1012.7 hPa | 0 mm | - | 71 W/m² | - |
| 1778108725 | 9.44° C | 65% | 1012.8 hPa | 0 mm | - | 69 W/m² | - |
| 1778108417 | 9.44° C | 65% | 1012.8 hPa | 0 mm | - | 68 W/m² | - |
| 1778108125 | 9.44° C | 65% | 1012.6 hPa | 0 mm | - | 76 W/m² | - |
| 1778107827 | 9.44° C | 65% | 1012.7 hPa | 0 mm | - | 87 W/m² | - |
| 1778107526 | 10° C | 66% | 1012.7 hPa | 0 mm | - | 94 W/m² | - |
| 1778107225 | 10° C | 65% | 1012.7 hPa | 0 mm | - | 112 W/m² | - |
| 1778106921 | 9.44° C | 66% | 1012.8 hPa | 0 mm | - | 112 W/m² | - |
| 1778106617 | 9.44° C | 66% | 1012.7 hPa | 0 mm | - | 105 W/m² | - |
| 1778106326 | 9.44° C | 66% | 1012.7 hPa | 0 mm | - | 109 W/m² | - |
| 1778106026 | 10° C | 65% | 1012.6 hPa | 0 mm | - | 96 W/m² | - |
| 1778105727 | 10° C | 65% | 1012.6 hPa | 0 mm | - | 94 W/m² | - |
| 1778105426 | 10° C | 65% | 1012.5 hPa | 0 mm | - | 97 W/m² | - |
| 1778105127 | 10° C | 65% | 1012.4 hPa | 0 mm | - | 93 W/m² | - |
| 1778104826 | 10° C | 65% | 1012.4 hPa | 0 mm | - | 97 W/m² | - |
| 1778104527 | 10° C | 64% | 1012.3 hPa | 0 mm | - | 100 W/m² | - |
| 1778104227 | 10° C | 65% | 1012.2 hPa | 0 mm | - | 105 W/m² | - |
| 1778103920 | 10° C | 65% | 1012.2 hPa | 0 mm | - | 120 W/m² | - |
| 1778103627 | 10° C | 65% | 1012 hPa | 0 mm | - | 119 W/m² | - |
| 1778103328 | 10° C | 66% | 1011.9 hPa | 0 mm | - | 144 W/m² | - |
| 1778103027 | 10° C | 65% | 1011.9 hPa | 0 mm | - | 178 W/m² | - |
| 1778102727 | 10° C | 66% | 1011.9 hPa | 0 mm | - | 222 W/m² | - |
| 1778102427 | 10° C | 65% | 1011.9 hPa | 0 mm | - | 205 W/m² | - |
| 1778102119 | 10.56° C | 65% | 1011.8 hPa | 0 mm | - | 171 W/m² | - |
* Rain latest hour (hover to see other rain measurements)
** Current wind speed in m/s (hover to see current wind gust speed)